sat.trackr.live / text

‹ back to catalog

STARLINK-31327

NORAD 59160 · 2024-044J

PAYLOAD ACTIVE UNKNOWN

§ Identity

Operator
Country
US
Launch date
2024-03-04
Launch site
AFETR
Launch vehicle
Mass (kg)
RCS (m²)

Purposes: comms

External: N2YO · Heavens-Above · Gunter

§ Orbital elements

Epoch: 2026-09-19T22:52:17.272416Z

Period
94.27 min
Inclination
43.0004°
Eccentricity
0.0001075
Mean motion
15.27581267 rev/d
Perigee alt
482.3 km
Apogee alt
483.8 km
Semi-major
6,861.2 km
B*
4.8217e-5
RAAN
90.1026°
Arg perigee
276.7559°
Mean anomaly
83.3170°
Rev number
14,330

§ Raw data

STARLINK-313271 59160U 24044J   26262.95297769  .00001065  00000+0  48217-4 0  99942 59160  43.0004  90.1026 0001075 276.7559  83.3170 15.27581267143303

JSON: /api/v1/satellites/59160 · /tle

For live sub-satellite position, see the globe view (requires WebGL).

§ Visibility from observer

Set your observer location to see the next 7 days of passes ≥ 10°. The values pass through the URL so the page stays shareable.

No JS? Fill the form by hand. The geolocation button needs JavaScript.